Watertown, NY

3:29 AM EST on December 13, 2019 (GMT -0500)
Watertown International

Weather History for KART - November, 2019

Change the Weather History Date:

Monday, November 11, 2019

  Actual Average Record
Temperature  
Mean Temperature 26 °F 40 °F  
Max Temperature 30 °F 49 °F 70 °F (2012)
Min Temperature 21 °F 31 °F 12 °F (2017)
Degree Days  
Heating Degree Days 40 25  
Month to date heating degree days 309 257  
Since 1 July heating degree days 950 1053  
Cooling Degree Days 0 0  
Month to date cooling degree days 0 0  
Year to date cooling degree days 348 362  
Moisture  
Dew Point 21 °F    
Average Humidity 86    
Maximum Humidity 93    
Minimum Humidity 81    
Precipitation  
Precipitation 0.13 in 0.11 in 0.73 in (2006)
Month to date precipitation 0.98 1.34  
Year to date precipitation 40.25 30.51  
Sea Level Pressure  
Sea Level Pressure 30.13 in    
Wind  
Wind Speed 12 mph ()    
Max Wind Speed 20 mph    
Max Gust Speed 25 mph    
Visibility 2.4 miles    
Events Fog , Snow    
T = Trace of Precipitation, MM = Missing Value Source: Averaged Metar Reports

Daily Weather History Graph

Daily Weather History Graph

Search for Another Location

Airport or City:

Astronomy

Nov. 11, 2019 Rise Set
Actual Time 6:53 AM EST 4:42 PM EST
Civil Twilight 6:22 AM EST 5:12 PM EST
Nautical Twilight 5:47 AM EST 5:47 PM EST
Astronomical Twilight 5:14 AM EST 6:21 PM EST
Moon 4:39 PM EST (11/11) 5:38 AM EST (11/11)
Length of Visible Light 10h 50m
Length of Day
9h 48m
Waxing Gibbous, 99% of the Moon is Illuminated
Nov 11
Waxing Gibbous
Nov 12
Full
Nov 19
Last Quarter
Nov 26
New
Dec 4
First Quarter

Hourly Weather History & Observations

Time (EST) Temp. Windchill Dew Point Humidity Pressure Visibility Wind Dir Wind Speed Gust Speed Precip Events Conditions
12:46 AM 30.0 °F 21.1 °F 28.0 °F 92% 30.10 in 0.8 mi NNE 10.4 mph - 0.00 in Snow Light Snow
12:56 AM 30.0 °F 21.7 °F 28.0 °F 92% 30.12 in 0.5 mi NNE 9.2 mph - 0.00 in Fog , Snow Light Snow
1:21 AM 30.0 °F 20.0 °F 27.0 °F 88% 30.11 in 1.5 mi NNE 12.7 mph - 0.00 in Snow Light Snow
1:32 AM 30.0 °F 18.7 °F 27.0 °F 88% 30.11 in 2.0 mi NE 16.1 mph - 0.00 in Snow Light Snow
1:56 AM 28.9 °F 19.2 °F 26.1 °F 89% 30.14 in 2.5 mi NNE 11.5 mph - 0.00 in Snow Light Snow
2:56 AM 28.9 °F 19.8 °F 26.1 °F 89% 30.15 in 4.0 mi NNE 10.4 mph - 0.00 in Snow Light Snow
3:12 AM 28.9 °F 21.1 °F 26.1 °F 89% 30.14 in 4.0 mi NNE 8.1 mph - 0.00 in Snow Light Snow
3:39 AM 28.0 °F 20.0 °F 26.1 °F 92% 30.14 in 2.5 mi NNE 8.1 mph - 0.00 in Snow Light Snow
3:56 AM 28.0 °F 18.6 °F 26.1 °F 92% 30.15 in 2.5 mi NNE 10.4 mph - 0.00 in Snow Light Snow
4:07 AM 28.0 °F 18.1 °F 26.1 °F 92% 30.15 in 4.0 mi NNE 11.5 mph - 0.00 in Snow Light Snow
4:56 AM 28.0 °F 16.1 °F 24.1 °F 85% 30.18 in 10.0 mi NNE 16.1 mph 21.9 mph 0.00 in   Overcast
5:22 AM 27.0 °F 16.7 °F 23.0 °F 85% 30.18 in 5.0 mi NNE 11.5 mph - 0.00 in Snow Light Snow
5:56 AM 27.0 °F 16.7 °F 23.0 °F 85% 30.20 in 10.0 mi NNE 11.5 mph - 0.00 in   Overcast
6:56 AM 26.1 °F 15.0 °F 21.9 °F 84% 30.21 in 10.0 mi ENE 12.7 mph - N/A   Overcast
7:05 AM 26.1 °F 15.0 °F 21.9 °F 84% 30.19 in 10.0 mi NE 12.7 mph - N/A   Overcast
7:56 AM 26.1 °F 15.6 °F 21.0 °F 81% 30.24 in 10.0 mi NE 11.5 mph - N/A   Overcast
8:40 AM 25.0 °F 13.1 °F 21.0 °F 85% 30.23 in 10.0 mi NE 13.8 mph - N/A   Overcast
8:56 AM 25.0 °F 13.6 °F 21.0 °F 85% 30.25 in 10.0 mi NE 12.7 mph - N/A   Overcast
9:56 AM 26.1 °F 15.6 °F 21.9 °F 84% 30.24 in 10.0 mi NE 11.5 mph - N/A   Overcast
10:56 AM 26.1 °F 14.5 °F 21.9 °F 84% 30.24 in 4.0 mi NE 13.8 mph - 0.00 in Snow Light Snow
11:27 AM 26.1 °F 15.6 °F 21.0 °F 81% 30.21 in 2.5 mi NNE 11.5 mph - 0.00 in Snow Light Snow
11:35 AM 26.1 °F 15.0 °F 21.0 °F 81% 30.21 in 1.5 mi NNE 12.7 mph - 0.00 in Snow Light Snow
11:47 AM 26.1 °F 14.5 °F 21.0 °F 81% 30.21 in 0.8 mi NNE 13.8 mph - 0.00 in Snow Light Snow
11:56 AM 26.1 °F 15.6 °F 21.0 °F 81% 30.22 in 0.8 mi North 11.5 mph - 0.00 in Snow Light Snow
12:01 PM 26.1 °F 15.0 °F 21.0 °F 81% 30.20 in 1.0 mi NNE 12.7 mph - 0.00 in Snow Light Snow
12:12 PM 25.0 °F 14.2 °F 19.9 °F 81% 30.20 in 0.8 mi NNE 11.5 mph - 0.00 in Snow Light Snow
12:56 PM 24.1 °F 11.5 °F 19.9 °F 84% 30.19 in 0.5 mi NNE 15.0 mph - 0.00 in Fog , Snow Light Snow
1:07 PM 24.1 °F 11.5 °F 19.9 °F 84% 30.17 in 0.2 mi NNE 15.0 mph - 0.00 in Fog , Snow Snow
1:30 PM 24.1 °F 10.6 °F 19.9 °F 84% 30.16 in 0.5 mi NE 17.3 mph - 0.00 in Fog , Snow Snow
1:56 PM 24.1 °F 11.5 °F 19.9 °F 84% 30.19 in 0.8 mi NE 15.0 mph - 0.00 in Snow Light Snow
2:08 PM 24.1 °F 13.1 °F 19.9 °F 84% 30.17 in 0.5 mi NE 11.5 mph - 0.00 in Fog , Snow Light Snow
2:30 PM 24.1 °F 12.5 °F 19.9 °F 84% 30.17 in 0.2 mi NE 12.7 mph - 0.01 in Fog , Snow Snow
2:46 PM 24.1 °F 12.0 °F 19.9 °F 84% 30.16 in 0.2 mi NE 13.8 mph - 0.01 in Fog , Snow Snow
2:56 PM 24.1 °F 12.5 °F 19.9 °F 84% 30.17 in 0.2 mi NNE 12.7 mph - 0.01 in Fog , Snow Snow
3:11 PM 23.0 °F 9.6 °F 19.0 °F 85% 30.15 in 0.5 mi NNE 16.1 mph - 0.00 in Fog , Snow Light Snow
3:33 PM 23.0 °F 10.1 °F 19.0 °F 85% 30.16 in 0.2 mi NNE 15.0 mph - 0.00 in Fog , Snow Light Snow
3:56 PM 23.0 °F 10.6 °F 19.0 °F 85% 30.17 in 0.5 mi NNE 13.8 mph - 0.00 in Fog , Snow Light Snow
4:29 PM 23.0 °F 11.1 °F 19.0 °F 85% 30.12 in 0.2 mi NNE 12.7 mph - 0.00 in Fog , Snow Light Snow
4:36 PM 21.9 °F 10.4 °F 19.0 °F 89% 30.12 in 0.5 mi NNE 11.5 mph - 0.00 in Fog , Snow Light Snow
4:53 PM 21.2 °F 9.5 °F 19.4 °F 93% 30.12 in 1.0 mi NNE 11.5 mph - 0.00 in Snow Light Snow
4:56 PM 21.9 °F 10.4 °F 19.0 °F 89% 30.15 in 1.0 mi NNE 11.5 mph - 0.00 in Snow Light Snow
5:05 PM 21.9 °F 9.8 °F 19.0 °F 89% 30.13 in 0.5 mi NNE 12.7 mph - 0.00 in Fog , Snow Snow
5:56 PM 21.9 °F 7.8 °F 19.0 °F 89% 30.13 in 0.8 mi NNE 17.3 mph - 0.01 in Snow Light Snow
6:15 PM 21.9 °F 8.7 °F 19.0 °F 89% 30.09 in 0.2 mi NNE 15.0 mph - 0.00 in Fog , Snow Snow
6:56 PM 21.9 °F 9.8 °F 19.0 °F 89% 30.09 in 0.5 mi NNE 12.7 mph - 0.01 in Fog , Snow Snow
7:03 PM 21.9 °F 9.8 °F 19.0 °F 89% 30.06 in 0.8 mi NNE 12.7 mph - 0.00 in Snow Light Snow
7:19 PM 23.0 °F 10.6 °F 19.9 °F 88% 30.06 in 1.0 mi NNE 13.8 mph - 0.01 in Snow Light Snow
7:32 PM 23.0 °F 11.1 °F 19.9 °F 88% 30.06 in 0.8 mi NNE 12.7 mph - 0.03 in Snow Light Snow
7:49 PM 23.0 °F 11.1 °F 19.9 °F 88% 30.06 in 0.5 mi NNE 12.7 mph - 0.04 in Fog , Snow Light Snow
7:56 PM 23.0 °F 11.1 °F 19.9 °F 88% 30.08 in 0.5 mi NNE 12.7 mph - 0.04 in Fog , Snow Light Snow
8:56 PM 21.9 °F 8.7 °F 19.0 °F 89% 30.04 in 0.5 mi NNE 15.0 mph - 0.02 in Fog , Snow Light Snow
9:18 PM 21.9 °F 9.2 °F 19.0 °F 89% 30.00 in 0.5 mi NNE 13.8 mph - 0.00 in Fog , Snow Light Snow
9:32 PM 21.9 °F 8.7 °F 19.0 °F 89% 30.00 in 0.5 mi NNE 15.0 mph - 0.01 in Fog , Snow Snow
9:56 PM 21.9 °F 9.2 °F 19.0 °F 89% 30.01 in 1.0 mi NNE 13.8 mph - 0.02 in Snow Light Snow
10:05 PM 21.9 °F 8.2 °F 19.0 °F 89% 29.99 in 1.2 mi NNE 16.1 mph - 0.00 in Snow Light Snow
10:35 PM 21.9 °F 8.2 °F 18.0 °F 85% 29.97 in 0.8 mi NNE 16.1 mph 23.0 mph 0.01 in Snow Light Snow
10:56 PM 21.0 °F 7.6 °F 18.0 °F 88% 29.98 in 0.5 mi NNE 15.0 mph - 0.01 in Fog , Snow Snow
11:56 PM 21.0 °F 7.6 °F 18.0 °F 88% 29.96 in 1.0 mi NNE 15.0 mph - 0.01 in Snow Light Snow